User: anonymous   Login
Location: Unspecified
(0.0000°N, 0.0000°E)
Time: 23:06:14
(UTC+00:00)
Language:

Hubble Space Telescope - Orbit

View from above orbital plane
View from above orbital plane
View from above satellite
View from above satellite

Ground track
Ground track

The orbit data is extracted from the following two-line orbital elements,

1 20580U 90037B   16205.55331825  .00000720  00000-0  33850-4 0  9992
2 20580  28.4707  18.5560 0002614 237.7492 171.3703 15.08432416240605
Epoch (UTC): 23 July 2016 13:16:46
Eccentricity: 0.0002614
inclination: 28.4707°
perigee height: 539 km
apogee height: 543 km
right ascension of ascending node: 18.5560°
argument of perigee: 237.7492°
revolutions per day: 15.08432416
mean anomaly at epoch: 171.3703°
orbit number at epoch: 24060

The dashed part of the orbit path shows where the satellite is in the earth's shadow,  

DLR